Content
SEND FEEDBACK

Daily
Averages
Monthly
Summary
United States of America

DAYTON, INDIANA


Home > North America > United States > Indiana
Elevation: 669 feet     Latitude: 40 20N     Longitude: 086 52W

WEATHER
 
SELECT A DAY
Number of Records: 204,590;   Date Range: 1/1/95 - 8/30/14
 
SHARE

PRINT THIS DATA

[ ← Previous Day ]
WEATHER ALMANAC - JANUARY 31, 2013
[ Next Day → ]
[ °C ]   °F
Weather ElementAverageHighLow
Temperature19.4 °F24.8 °F (10:39 am)8.1 °F (10:54 pm)
Dewpoint11.8 °F17.6 °F (9:03 am)-0.9 °F (10:54 pm)
Humidity72.6 %86 % (9:03 am)62 % (5:54 pm)
Barometer29.90 in30.16 in (10:54 pm)29.72 in (1:54 am)
Wind Speed18.6 mph26.5 mph (10:39 am)
Wind Gust34.5 mph (10:39 am)
Weather ElementAverage
Visibility6.5 mi
Wind DirectionWNW (286.6 °)

Weather ElementTotal
Precipitation---
Heating Degree Days48.6 (Base 65)
Averaged from 38 records on January 31, 2013
WEATHER CONDITIONS BREAKOUT
WIND DIRECTION BREAKOUT
WEATHER BY HOUR - JANUARY 31, 2013
[ °C ]   °F
Local TimeTemperatureDewpointHumidityBarometerVisibilityWind DirectionWind SpeedGust SpeedPrecipitationEventsConditions
1:54 AM21.9 °F16.0 °F78 %29.72 in8.0 miWest (280°)19.6 mph31.1 mph0.00 inSnowLight Snow
2:54 AM21.9 °F14.0 °F72 %29.75 in7.0 miWest (280°)23.0 mph32.2 mph0.00 inSnowLight Snow
3:24 AM21.2 °F15.8 °F80 %29.74 in5.0 miWNW (290°)23.0 mph31.1 mph0.00 inSnowLight Snow
3:54 AM19.9 °F14.0 °F78 %29.77 in10.0 miWNW (290°)25.3 mph32.2 mph0.00 inSnowLight Snow
4:20 AM19.4 °F10.4 °F68 %29.77 in9.0 miWest (280°)19.6 mph31.1 mph0.00 inSnowLight Snow
4:54 AM19.0 °F10.9 °F71 %29.80 in10.0 miWest (280°)18.4 mph32.2 mph0.00 inOvercast
5:03 AM19.4 °F10.4 °F68 %29.78 in10.0 miWNW (290°)15.0 mph26.5 mph0.00 inSnowLight Snow
5:54 AM18.0 °F10.0 °F71 %29.81 in10.0 miWest (280°)24.2 mph31.1 mph0.00 inSnowLight Snow
7:42 AM21.2 °F14.0 °F74 %29.81 in10.0 miWest (270°)11.5 mph19.6 mphOvercast
7:54 AM21.9 °F14.0 °F72 %29.83 in10.0 miWest (280°)17.3 mph23.0 mphOvercast
8:54 AM21.9 °F16.0 °F78 %29.85 in6.0 miWest (270°)15.0 mph23.0 mph0.00 inSnowLight Snow
9:03 AM21.2 °F17.6 °F86 %29.84 in2.0 miWest (270°)15.0 mph24.2 mph0.00 inSnowLight Snow
9:16 AM21.2 °F17.6 °F86 %29.84 in1.0 miWest (270°)16.1 mph21.9 mph0.00 inSnowLight Snow
9:25 AM21.2 °F17.6 °F86 %29.85 in3.0 miWest (260°)13.8 mph21.9 mph0.00 inSnowLight Snow
9:54 AM24.1 °F17.1 °F75 %29.87 in8.0 miWest (270°)15.0 mph26.5 mph0.00 inSnowLight Snow
10:39 AM24.8 °F15.8 °F69 %29.87 in9.0 miWNW (290°)26.5 mph34.5 mph0.00 inSnowLight Snow
10:54 AM24.1 °F14.0 °F65 %29.90 in9.0 miWest (270°)20.7 mph32.2 mph0.00 inSnowLight Snow
11:54 AM23.0 °F14.0 °F68 %29.92 in7.0 miWest (280°)16.1 mph27.6 mph0.00 inSnowLight Snow
12:26 PM23.0 °F12.2 °F63 %29.90 in10.0 miWest (280°)17.3 mph32.2 mph0.00 inOvercast
12:54 PM21.9 °F12.9 °F68 %29.92 in3.0 miWNW (290°)25.3 mph31.1 mph0.00 inSnowLight Snow
1:34 PM21.2 °F14.0 °F74 %29.91 in2.0 miWNW (290°)16.1 mph25.3 mph0.00 inSnowLight Snow
1:41 PM21.2 °F15.8 °F80 %29.91 in1.5 miWNW (290°)20.7 mph25.3 mph0.00 inSnowLight Snow
1:54 PM21.0 °F15.1 °F78 %29.93 in2.0 miWest (280°)17.3 mph24.2 mph0.00 inSnowLight Snow
2:23 PM21.2 °F15.8 °F80 %29.90 in3.0 miWNW (300°)15.0 mph0.00 inSnowLight Snow
2:30 PM21.2 °F15.8 °F80 %29.90 in4.0 miWNW (290°)17.3 mph0.00 inSnowLight Snow
2:54 PM21.9 °F12.0 °F66 %29.93 in10.0 miWest (280°)18.4 mph27.6 mph0.00 inOvercast
3:54 PM21.9 °F10.9 °F63 %29.93 in10.0 miWNW (290°)20.7 mph27.6 mphOvercast
4:35 PM19.4 °F12.2 °F74 %29.92 in2.0 miWNW (300°)17.3 mph25.3 mph0.00 inSnowLight Snow
4:45 PM19.4 °F12.2 °F74 %29.92 in2.0 miWNW (300°)17.3 mph26.5 mph0.00 inSnowLight Snow
4:52 PM19.4 °F12.2 °F74 %29.93 in2.0 miWNW (300°)18.4 mph27.6 mph0.00 inSnowLight Snow
4:54 PM19.0 °F12.0 °F74 %29.96 in2.0 miWNW (290°)16.1 mph27.6 mph0.00 inSnowLight Snow
5:08 PM17.6 °F10.4 °F73 %29.95 in3.0 miWNW (300°)13.8 mph24.2 mph0.00 inSnowLight Snow
5:54 PM17.1 °F6.1 °F62 %30.00 in10.0 miWNW (300°)19.6 mph31.1 mph0.00 inOvercast
8:54 PM12.0 °F1.9 °F64 %30.09 in10.0 miNW (320°)17.3 mph32.2 mphOvercast
9:54 PM10.0 °F0.0 °F64 %30.13 in9.0 miWNW (300°)23.0 mph34.5 mph0.00 inMostly Cloudy
10:05 PM8.6 °F-0.4 °F67 %30.10 in8.0 miWNW (300°)23.0 mph34.5 mph0.00 inSnowLight Snow
10:54 PM8.1 °F-0.9 °F67 %30.16 in10.0 miWNW (300°)21.9 mph34.5 mph0.00 inOvercast
11:12 PM8.6 °F-0.4 °F67 %30.14 in9.0 miWNW (290°)17.3 mph24.2 mph0.00 inOvercast
Hourly data recorded from KLAF, located miles away from Dayton, Indiana







STORIES FROM OUR PARTNERS